Date String (YYYY-MM-DD hh:mm:ss) UTC,Instrument flags,Ambient pressure (hPa),Sample flow (lpm),Bypass flow (lpm),Sample temperature (°C),Ambient temperature (°C),ASC tube jacket temperature (°C),LED temperature (°C),Box temperature (°C),Sample RH (%),Span deviation,Mass concentration (μg/m³),Mass concentration (μg/m³),Mass concentration (μg/m³)
DateTimeUTC,F1_M11,P_M11,Q1_M11,Q2_M11,T1_M11,T2_M11,T3_M11,T4_M11,T5_M11,U1_M11,ZSPAN_M11,X0_M11,X2_M11,X1_M11
2022-06-06 16:00:00,,0823.6,5.01,0.00,29.8,28.8,00.0,38.6,31.7,24.5,0000.0,0010.89,0003.64,0002.27
2022-06-06 16:01:00,,0823.5,4.99,0.00,29.8,28.9,00.0,38.6,31.7,24.7,0000.0,0010.09,0003.61,0002.30
2022-06-06 16:02:00,,0823.6,5.00,0.00,29.8,28.9,00.0,38.7,31.8,27.0,0000.0,0009.59,0003.64,0002.34
2022-06-06 16:03:00,,0823.6,5.00,0.00,29.9,29.0,00.0,38.7,31.8,26.3,0000.0,0009.68,0003.68,0002.36
2022-06-06 16:04:00,,0823.6,5.00,0.00,29.9,29.0,00.0,38.7,31.8,25.3,0000.0,0009.09,0003.65,0002.37
2022-06-06 16:05:00,,0823.6,5.00,0.00,29.9,28.8,00.0,38.7,31.8,26.2,0000.0,0008.79,0003.73,0002.40
2022-06-06 16:06:00,,0823.5,5.01,0.00,29.8,27.9,00.0,38.6,31.5,25.4,0000.0,0008.81,0003.83,0002.45
2022-06-06 16:07:00,,0823.5,5.00,0.00,29.8,27.4,00.0,38.5,31.4,25.4,0000.0,0008.89,0003.87,0002.48
2022-06-06 16:08:00,,0823.6,5.00,0.00,29.7,27.4,00.0,38.5,31.3,24.8,0000.0,0008.98,0003.91,0002.50
2022-06-06 16:09:00,,0823.6,5.00,0.00,29.6,27.5,00.0,38.5,31.3,24.9,0000.0,0009.07,0003.93,0002.53
2022-06-06 16:10:00,,0823.5,5.01,0.00,29.6,27.6,00.0,38.5,31.3,25.2,0000.0,0009.17,0003.99,0002.57
2022-06-06 16:11:00,,0823.5,4.99,0.00,29.6,27.7,00.0,38.5,31.3,25.3,0000.0,0009.20,0004.00,0002.59
2022-06-06 16:12:00,,0823.5,5.00,0.00,29.6,27.8,00.0,38.5,31.3,26.4,0000.0,0009.21,0004.01,0002.60
2022-06-06 16:13:00,,0823.4,4.99,0.00,29.6,28.0,00.0,38.5,31.4,26.4,0000.0,0009.34,0004.04,0002.60
2022-06-06 16:14:00,,0823.4,5.01,0.00,29.6,28.1,00.0,38.5,31.4,26.4,0000.0,0009.08,0004.02,0002.62
2022-06-06 16:15:00,,0823.4,5.01,0.00,29.6,28.2,00.0,38.5,31.4,26.5,0000.0,0009.05,0004.01,0002.63
2022-06-06 16:16:00,,0823.5,5.00,0.00,29.6,28.3,00.0,38.5,31.4,26.0,0000.0,0008.93,0003.95,0002.65
2022-06-06 16:17:00,,0823.4,5.00,0.00,29.6,28.4,00.0,38.5,31.5,26.5,0000.0,0009.02,0003.90,0002.65
2022-06-06 16:18:00,,0823.6,4.99,0.00,29.6,28.4,00.0,38.5,31.5,26.7,0000.0,0009.05,0003.89,0002.64
2022-06-06 16:19:00,,0823.6,4.99,0.00,29.6,28.5,00.0,38.5,31.5,26.8,0000.0,0009.16,0003.86,0002.62
2022-06-06 16:20:00,,0823.6,4.99,0.00,29.6,28.6,00.0,38.5,31.5,25.2,0000.0,0009.63,0003.87,0002.63
2022-06-06 16:21:00,,0823.6,5.00,0.00,29.7,28.6,00.0,38.5,31.6,25.5,0000.0,0010.00,0003.89,0002.62
2022-06-06 16:22:00,,0823.6,5.00,0.00,29.7,28.7,00.0,38.5,31.6,25.8,0000.0,0010.77,0003.91,0002.62
2022-06-06 16:23:00,,0823.6,5.00,0.00,29.7,28.7,00.0,38.5,31.6,25.3,0000.0,0011.18,0003.90,0002.61
2022-06-06 16:24:00,,0823.6,5.01,0.00,29.7,28.8,00.0,38.5,31.7,26.3,0000.0,0011.45,0003.91,0002.63
2022-06-06 16:25:00,,0823.6,4.99,0.00,29.8,28.8,00.0,38.6,31.7,24.9,0000.0,0011.56,0003.92,0002.63
2022-06-06 16:26:00,,0823.6,4.99,0.00,29.8,28.9,00.0,38.6,31.7,25.2,0000.0,0011.68,0003.93,0002.63
2022-06-06 16:27:00,,0823.6,5.01,0.00,29.8,28.9,00.0,38.6,31.7,24.1,0000.0,0012.28,0003.96,0002.62
2022-06-06 16:28:00,,0823.6,4.99,0.00,29.8,28.6,00.0,38.6,31.7,23.9,0000.0,0012.10,0003.99,0002.61
2022-06-06 16:29:00,,0823.6,5.02,0.00,29.8,27.7,00.0,38.5,31.4,24.6,0000.0,0012.37,0004.03,0002.62
2022-06-06 16:30:00,,0823.6,4.98,0.00,29.7,27.3,00.0,38.4,31.3,24.9,0000.0,0012.51,0004.06,0002.65
2022-06-06 16:31:00,,0823.6,5.01,0.00,29.6,27.2,00.0,38.4,31.2,24.6,0000.0,0012.48,0004.06,0002.66
2022-06-06 16:32:00,,0823.6,4.99,0.00,29.5,27.3,00.0,38.4,31.2,25.2,0000.0,0013.42,0004.02,0002.66
2022-06-06 16:33:00,,0823.6,5.01,0.00,29.5,27.4,00.0,38.4,31.2,25.3,0000.0,0013.17,0003.99,0002.67
2022-06-06 16:34:00,,0823.6,5.00,0.00,29.5,27.6,00.0,38.4,31.2,25.1,0000.0,0012.66,0004.04,0002.69
2022-06-06 16:35:00,,0823.6,4.99,0.00,29.5,27.7,00.0,38.4,31.3,26.1,0000.0,0012.49,0004.03,0002.71
2022-06-06 16:36:00,,0823.6,5.01,0.00,29.5,27.8,00.0,38.4,31.3,25.6,0000.0,0013.47,0004.01,0002.72
2022-06-06 16:37:00,,0823.6,5.00,0.00,29.5,28.0,00.0,38.4,31.3,25.5,0000.0,0013.74,0003.99,0002.71
2022-06-06 16:38:00,,0823.6,5.00,0.00,29.5,28.1,00.0,38.4,31.3,25.8,0000.0,0012.83,0003.97,0002.73
2022-06-06 16:39:00,,0823.6,5.00,0.00,29.5,28.2,00.0,38.4,31.4,26.3,0000.0,0012.93,0003.99,0002.76
2022-06-06 16:40:00,,0823.6,5.01,0.00,29.5,28.3,00.0,38.4,31.4,26.4,0000.0,0012.87,0004.01,0002.78
2022-06-06 16:41:00,,0823.6,5.00,0.00,29.5,28.4,00.0,38.4,31.4,25.7,0000.0,0012.82,0003.97,0002.76
2022-06-06 16:42:00,,0823.6,4.99,0.00,29.5,28.4,00.0,38.4,31.4,26.2,0000.0,0012.46,0003.95,0002.75
2022-06-06 16:43:00,,0823.6,5.01,0.00,29.5,28.5,00.0,38.4,31.5,25.7,0000.0,0011.24,0003.99,0002.77
2022-06-06 16:44:00,,0823.6,5.00,0.00,29.6,28.6,00.0,38.4,31.5,25.3,0000.0,0010.93,0003.99,0002.80
2022-06-06 16:45:00,,0823.6,4.99,0.00,29.6,28.6,00.0,38.4,31.5,25.0,0000.0,0010.79,0003.96,0002.81
2022-06-06 16:46:00,,0823.6,5.00,0.00,29.6,28.7,00.0,38.4,31.5,25.7,0000.0,0010.78,0003.94,0002.82
2022-06-06 16:47:00,,0823.5,5.01,0.00,29.6,28.7,00.0,38.4,31.6,25.5,0000.0,0009.81,0003.94,0002.84
2022-06-06 16:48:00,,0823.5,5.00,0.00,29.7,28.7,00.0,38.5,31.6,25.5,0000.0,0012.43,0003.96,0002.87
2022-06-06 16:49:00,,0823.5,5.00,0.00,29.7,28.8,00.0,38.5,31.6,26.0,0000.0,0012.53,0003.95,0002.88
2022-06-06 16:50:00,,0823.5,4.99,0.00,29.7,28.8,00.0,38.5,31.6,26.5,0000.0,0012.32,0003.94,0002.91
2022-06-06 16:51:00,,0823.5,5.00,0.00,29.7,28.4,00.0,38.5,31.6,26.5,0000.0,0013.15,0003.96,0002.93
2022-06-06 16:52:00,,0823.4,5.01,0.00,29.6,27.5,00.0,38.4,31.4,26.9,0000.0,0012.92,0004.01,0002.95
2022-06-06 16:53:00,,0823.5,4.99,0.00,29.6,27.2,00.0,38.3,31.2,26.7,0000.0,0012.86,0004.06,0002.99
2022-06-06 16:54:00,,0823.5,5.00,0.00,29.5,27.1,00.0,38.3,31.2,26.2,0000.0,0012.94,0004.07,0003.01
2022-06-06 16:55:00,,0823.4,5.00,0.00,29.4,27.2,00.0,38.3,31.1,26.4,0000.0,0012.91,0004.08,0003.03
2022-06-06 16:56:00,,0823.4,5.00,0.00,29.4,27.3,00.0,38.3,31.1,29.0,0000.0,0013.08,0004.11,0003.04
2022-06-06 16:57:00,,0823.4,5.01,0.00,29.4,27.5,00.0,38.3,31.1,29.1,0000.0,0013.72,0004.15,0003.02
2022-06-06 16:58:00,,0823.4,5.00,0.00,29.4,27.6,00.0,38.3,31.2,27.7,0000.0,0014.05,0004.19,0003.04
2022-06-06 16:59:00,,0823.5,4.99,0.00,29.4,27.8,00.0,38.3,31.2,28.1,0000.0,0011.90,0004.28,0003.05
